George, South Africa

2:06 AM SAST on July 23, 2017 (GMT +0200)
George

Weather History for FAGG - March, 2014

Change the Weather History Date:

Monday, March 10, 2014

  Actual Average Record
Temperature  
Mean Temperature 63 °F -  
Max Temperature 72 °F 72 °F 96 °F (2007)
Min Temperature 54 °F 56 °F 52 °F (2013)
Degree Days  
Heating Degree Days 2    
Growing Degree Days 13 (Base 50)    
Moisture  
Dew Point 56 °F    
Average Humidity 76    
Maximum Humidity 94    
Minimum Humidity 56    
Precipitation  
Precipitation 0.00 in - - ()
Sea Level Pressure  
Sea Level Pressure 30.04 in    
Wind  
Wind Speed 9 mph ()    
Max Wind Speed 18 mph    
Max Gust Speed -    
Visibility 7.6 miles    
Events      
Averages and records for this station are not official NWS values.
T = Trace of Precipitation, MM = Missing Value Source: Averaged Metar Reports

Daily Weather History Graph

Daily Weather History Graph

Search for Another Location

Airport or City:

Trip Planner

Search our weather history database for the weather conditions in past years. The results will help you decide how hot, cold, wet, or windy it might be!

Date:

Astronomy

Mar. 10, 2014 Rise Set
Actual Time 6:25 AM SAST 6:55 PM SAST
Civil Twilight 6:00 AM SAST 7:20 PM SAST
Nautical Twilight 5:30 AM SAST 7:49 PM SAST
Astronomical Twilight 5:00 AM SAST 8:19 PM SAST
Moon 2:57 PM SAST (3/10) 12:46 AM SAST (3/10)
Length of Visible Light 13h 20m
Length of Day
12h 29m
Waxing Gibbous, 67% of the Moon is Illuminated
Mar 10
Waxing Gibbous
Mar 16
Full
Mar 24
Last Quarter
Mar 30
New
Apr 7
First Quarter

Hourly Weather History & Observations

Time (SAST) Temp. Dew Point Humidity Pressure Visibility Wind Dir Wind Speed Gust Speed Precip Events Conditions
12:00 AM 59.0 °F 55.4 °F 88% 30.15 in 6.2 mi East 9.2 mph - N/A   Mostly Cloudy
1:00 AM 59.0 °F 55.4 °F 88% 30.15 in 6.2 mi East 8.1 mph - N/A   Overcast
2:00 AM 59 °F 56 °F 85% 30.15 in 12 mi East 10.4 mph - -  
2:00 AM 59.0 °F 55.4 °F 88% 30.15 in 6.2 mi East 8.1 mph - N/A   Mostly Cloudy
3:00 AM 59.0 °F 55.4 °F 88% 30.12 in 6.2 mi East 8.1 mph - N/A   Mostly Cloudy
4:00 AM 59.0 °F 55.4 °F 88% 30.09 in 6.2 mi East 6.9 mph - N/A   Mostly Cloudy
5:00 AM 58 °F 55 °F 85% 30.11 in 12 mi ESE 9.2 mph - -   Scattered Clouds
5:00 AM 57.2 °F 53.6 °F 88% 30.09 in 6.2 mi ESE 8.1 mph - N/A   Partly Cloudy
6:00 AM 55.4 °F 53.6 °F 94% 30.09 in 6.2 mi Variable 2.3 mph - N/A   Partly Cloudy
7:00 AM 57.2 °F 53.6 °F 88% 30.09 in 6.2 mi NE 2.3 mph - N/A   Partly Cloudy
8:00 AM 61 °F 56 °F 77% 30.10 in 12 mi East 8.1 mph - -   Scattered Clouds
8:00 AM 60.8 °F 55.4 °F 82% 30.09 in 6.2 mi East 8.1 mph - N/A   Partly Cloudy
9:00 AM 64.4 °F 55.4 °F 73% 30.09 in 6.2 mi East 10.4 mph - N/A   Scattered Clouds
10:00 AM 66.2 °F 57.2 °F 73% 30.06 in 6.2 mi East 10.4 mph - N/A   Scattered Clouds
11:00 AM 68 °F 58 °F 63% 30.06 in 12 mi ESE 11.5 mph - -   Partly Cloudy
11:00 AM 68.0 °F 57.2 °F 68% 30.06 in 6.2 mi East 10.4 mph - N/A   Scattered Clouds
12:00 PM 71.6 °F 57.2 °F 60% 30.04 in 6.2 mi ESE 12.7 mph - N/A   Scattered Clouds
1:00 PM 71.6 °F 59.0 °F 64% 30.01 in 6.2 mi East 10.4 mph - N/A   Scattered Clouds
2:00 PM 71 °F 58 °F 56% 30.01 in 12 mi ESE 13.8 mph - -   Partly Cloudy
2:00 PM 69.8 °F 59.0 °F 68% 30.01 in 6.2 mi ESE 13.8 mph - N/A   Scattered Clouds
3:00 PM 69.8 °F 57.2 °F 64% 29.98 in 6.2 mi East 15.0 mph - N/A   Partly Cloudy
4:00 PM 69.8 °F 59.0 °F 68% 29.95 in 6.2 mi ESE 18.4 mph - N/A   Partly Cloudy
5:00 PM 68 °F 58 °F 61% 29.95 in 12 mi ESE 16.1 mph - -   Scattered Clouds
5:00 PM 68.0 °F 57.2 °F 68% 29.95 in 6.2 mi ESE 16.1 mph - N/A   Partly Cloudy
6:00 PM 66.2 °F 57.2 °F 73% 29.92 in 6.2 mi ESE 13.8 mph - N/A   Mostly Cloudy
7:00 PM 64.4 °F 57.2 °F 77% 29.92 in 6.2 mi ESE 11.5 mph - N/A   Scattered Clouds
8:00 PM 63 °F 57 °F 74% 29.97 in 12 mi ESE 9.2 mph - -   Scattered Clouds
8:00 PM 62.6 °F 57.2 °F 82% 29.95 in 6.2 mi ESE 9.2 mph - N/A   Partly Cloudy
11:00 PM 60.8 °F 55.4 °F 82% 29.92 in 6.2 mi Variable 1.2 mph - N/A   Unknown